{"data":{"norad_id":56926,"intl_designator":"2023-083BC","name":"STARLINK-5746","alt_names":[],"object_type":"PAYLOAD","status":"ACTIVE","operator":null,"country":"US","launch_date":"2023-06-12","launch_site_code":"AFETR","launch_vehicle":null,"mission":null,"orbit_class":"UNKNOWN","rcs_meters":null,"size_class":null,"mass_kg":null,"dimensions":null,"purposes":["comms"],"wikipedia_slug":null,"has_3d_model":false,"image_url":null,"decayed_at":null,"tle_current":{"epoch":"2026-05-24T21:36:31.562784Z","epoch_age_seconds":77020,"freshness":"FRESH","line1":"1 56926U 23083BC  26144.90036531 -.00003501  00000+0 -11782-3 0  9990","line2":"2 56926  43.0031   0.2730 0001111 259.5017 100.5709 15.27562098163452","mean_motion":15.27562098,"eccentricity":0.0001111,"inclination_deg":43.0031,"raan_deg":0.273,"arg_perigee_deg":259.5017,"mean_anomaly_deg":100.5709,"bstar":-0.00011782,"rev_number":16345,"period_min":94.267853456521,"perigee_km":482.34041786053,"apogee_km":483.86498532222,"semimajor_km":6861.2397015914,"source":"CELESTRAK","updated_at":"2026-05-25T13:38:18.207330Z"}}}